Weather observations for the past three days for
Hickory, Hickory Regional Airport
Imperial (Metric)
Date Time (edt) Wind (mph) Vis. (mi.) Weather Sky Cond. Temperature (ºF) Relative Humidity Wind Chill (°F) Heat Index (°F) Pressure Precipitation (in)
Air Dwpt 6 hour altimeter (in) sea level (mb) 1 hr 3 hr 6 hr
Max. Min.
24 20:52 N 8 10.00 Fair CLR 80.6 55.4 42% 81 29.92 0.0
24 19:52 N 12 10.00 Fair CLR 87.8 55.4 33% 86 29.87 0.0
24 18:52 Calm 10.00 NULL NULL 87.8 55.4 33% 86 29.88 0.0
24 17:52 N 12 10.00 Fair CLR 89.6 55.4 31% 88 29.87 0.0
24 16:52 N 9 10.00 Fair CLR 91.4 55.4 30% 90 29.87 0.0
24 15:52 N 7 G 17 10.00 Fair CLR 89.6 57.2 33% 88 29.88 0.0
24 14:52 N 7 G 18 10.00 Fair CLR 87.8 73.4 62% 96 29.89 0.0
24 13:52 N 8 G 17 10.00 Fair CLR 89.6 59 36% 89 29.9 0.0
24 08:53 NE 7 10.00 Fair CLR 82.4 69.8 66% 86 29.87 0.0
24 07:53 Vrbl 3 10.00 Fair CLR 78.8 68 70% 81 29.86 0.0
24 06:53 Calm 10.00 Fair CLR 73.4 66.2 78% 29.84 0.0
23 15:52 W 7 10.00 Fair CLR 87.8 68 52% 91 29.87 0.0
23 14:52 Calm 10.00 Fair CLR 89.6 66.2 46% 92 29.9 0.0
23 13:52 SW 9 10.00 Fair CLR 89.6 68 49% 93 29.93 0.0
23 12:52 SW 8 G 17 10.00 Partly Cloudy FEW055 SCT070 91.4 64.4 41% 93 29.95 0.0
23 11:53 Calm 10.00 A Few Clouds FEW044 89.6 68 49% 93 29.96 0.0
23 10:47 Vrbl 3 10.00 Fair CLR 86 71.6 62% 92 29.98 0.0
23 09:50 Calm 10.00 Fair CLR 82.4 71.6 70% 87 29.98 0.0
23 08:47 W 5 10.00 Fair CLR 78.8 71.6 79% 82 29.99 0.0
23 07:53 NW 5 10.00 Fair CLR 75.2 71.6 89% 75 30 0.0
23 06:53 Calm 10.00 Fair CLR 73.4 69.8 89% 30 0.0
22 19:52 Calm 10.00 Fair CLR 86 66.2 52% 88 30.02 0.0
22 18:52 Calm 10.00 Fair CLR 86 66.2 52% 88 30.03 0.0
22 17:52 Calm 10.00 Fair CLR 87.8 68 52% 91 30.03 0.0
22 16:52 S 5 10.00 A Few Clouds FEW060 87.8 68 52% 91 30.05 0.0
22 15:52 S 8 10.00 A Few Clouds FEW060 89.6 68 49% 93 30.07 0.0
22 13:50 Vrbl 5 10.00 A Few Clouds FEW047 87.8 66.2 49% 90 30.12 0.0
22 12:50 Vrbl 3 10.00 A Few Clouds FEW050 87.8 66.2 49% 90 30.15 0.0
22 11:47 Calm 10.00 Fair CLR 86 64.4 49% 87 30.16 0.0
22 10:53 Vrbl 5 10.00 Fair CLR 84.2 66.2 55% 87 30.17 0.0
22 09:53 Vrbl 5 10.00 Fair CLR 80.6 66.2 62% 83 30.18 0.0
22 08:53 Calm 10.00 Fair CLR 75.2 66.2 74% 77 30.18 0.0
22 07:48 Calm 10.00 Fair CLR 68 64.4 88% 30.18 0.0
22 06:47 Calm 10.00 Fair CLR 66.2 64.4 94% 30.18 0.0
Date Time (edt) Wind (mph) Vis. (mi.) Weather Sky Cond. Air Dwpt Max. Min. Relative Humidity Wind Chill (°F) Heat Index (°F) altimeter (in) sea level (mb) 1 hr 3 hr 6 hr
6 hour
Temperature (ºF) Pressure Precipitation (in)